Overview Statistics Trail Chart Weather Telemetry Raw packets
 

This is the latest recevied weather packets stored in our database for station/object IU1OLT-7. If no packets are shown the sender has not sent any weather packets the latest 10 day(s).

<< 1 2 3 4 >>
Time Temp. Humidity Pressure Rain* Wind** Luminosity Snow
1788608497 36.11° C 26% 1024.9 hPa - - - -
1788607604 35° C 26% 1024.9 hPa - - - -
1788606694 35° C 26% 1024.9 hPa - - - -
1788605793 32.78° C 27% 1025 hPa - - - -
1788604899 33.89° C 27% 1024.9 hPa - - - -
1788603102 32.22° C 28% 1024.9 hPa - - - -
1788602199 32.22° C 26% 1024.8 hPa - - - -
1788601300 30.56° C 25% 1024.8 hPa - - - -
1788600399 30.56° C 22% 1024.8 hPa - - - -
1788599500 31.11° C 23% 1024.7 hPa - - - -
1788598600 31.67° C 24% 1024.6 hPa - - - -
1788596799 31.11° C 25% 1024.2 hPa - - - -
1788595900 30° C 23% 1024.2 hPa - - - -
1788594999 28.33° C 23% 1024.2 hPa - - - -
1788594093 27.22° C 26% 1024 hPa - - - -
1788593193 26.67° C 26% 1023.9 hPa - - - -
1788592293 25° C 25% 1023.9 hPa - - - -
1788591393 25° C 26% 1023.9 hPa - - - -
1788589602 25° C 25% 1023.8 hPa - - - -
1788588699 25° C 21% 1023.9 hPa - - - -
1788587792 23.33° C 27% 1023.8 hPa - - - -
1788586891 22.78° C 25% 1023.7 hPa - - - -
1788585991 22.22° C 25% 1023.7 hPa - - - -
1788584191 22.22° C 23% 1023.6 hPa - - - -
1788583291 23.89° C 19% 1023.4 hPa - - - -

* Rain since midnight (hover to see other rain measurements)
** Current wind speed in m/s (hover to see current wind gust speed)